Home > Weather > Nagoya > Past weeks

Flag for Japan Past Weather in Nagoya, Japan — Yesterday and Last 2 Weeks

Now
73 °F

Passing clouds.


Feels Like: 72 °F
Forecast: 70 / 86 °F
Wind: 5 mph from Northeast

Location: Nagoya Airport

Current Time: Jul 27, 2016 at 3:03:00 AM

Latest Report: Jul 27, 2016 at 2:30 AM


Visibility: N/A

Pressure: 29.80 "Hg

Humidity: 89%

Dew Point: 70 °F

Location of NagoyaLocation

Past Weather in Nagoya — Graph

°F

Nagoya Temperature Yesterday

Maximum temperature yesterday: 75 °F (at 12:00 AM)
Minimum temperature yesterday: 72 °F (at 6:30 PM)
Average temperature yesterday: 74 °F

High & Low Weather Summary for the Past Weeks

 TemperatureHumidityPressure
High90 °F (Jul 18, 3:00 PM)94% (Jul 13, 2:00 AM)29.98 "Hg (Jul 13, 2:00 AM)
Low72 °F (Jul 16, 1:30 AM)36% (Jul 20, 4:00 PM)29.39 "Hg (Jul 14, 2:00 PM)
Average78 °F75%29.75 "Hg
* Reported Jul 12 2:00 AM — Jul 27 2:00 AM, Nagoya, Weather by CustomWeather, © 2016

Note: Actual official high and low records may vary slightly from our data, if they occured in-between our weather recording intervals... More about our weather records

Advertising

Nagoya Weather History for the Previous 24 Hours

Scroll right to see more
 ConditionsComfort  
Time TempWeatherWind HumidityBarometerVisibility
2:00 AM
Wed, Jul 27
73 °FPassing clouds.6 mph89%29.80 "HgN/A
1:30 AM73 °FPartly cloudy.5 mph89%29.80 "Hg5 mi
1:00 AM72 °FPartly cloudy.7 mph94%29.80 "HgN/A
12:30 AM72 °FPassing clouds.8 mph94%29.80 "HgN/A
12:00 AM72 °FPartly cloudy.10 mph94%29.80 "HgN/A
11:30 PM
Tue, Jul 26
72 °FPassing clouds.9 mph94%29.80 "HgN/A
11:00 PM72 °FSprinkles. Passing clouds.9 mph94%29.80 "HgN/A
10:30 PM72 °FSprinkles. Passing clouds.9 mph94%29.80 "HgN/A
10:00 PM72 °FScattered showers. Passing clouds.12 mph94%29.80 "HgN/A
9:30 PM72 °FScattered showers. Partly cloudy.12 mph94%29.80 "HgN/A
9:00 PM72 °FSprinkles. Partly cloudy.14 mph88%29.80 "Hg5 mi
8:00 PM72 °FLots of rain. Fog.17 mph88%29.80 "Hg1 mi
7:30 PM72 °FRain showers. Fog.18 mph94%29.80 "Hg2 mi
7:00 PM72 °FSprinkles. Fog.12 mph94%29.80 "Hg3 mi
6:30 PM72 °FRain showers. Fog.12 mph94%29.80 "Hg1 mi
6:00 PM75 °FLots of rain. Fog.14 mph89%29.80 "Hg1 mi
5:30 PM75 °FRain showers. Fog.14 mph89%29.80 "Hg2 mi
5:00 PM75 °FSprinkles. Partly sunny.14 mph89%29.80 "Hg4 mi
4:30 PM75 °FSprinkles. Partly sunny.13 mph89%29.80 "Hg4 mi
4:00 PM73 °FSprinkles. Partly sunny.14 mph94%29.80 "Hg4 mi
3:30 PM73 °FSprinkles. Partly sunny.15 mph89%29.80 "Hg4 mi
3:00 PM73 °FSprinkles. Broken clouds.17 mph94%29.80 "Hg4 mi
2:30 PM73 °FSprinkles. Fog.16 mph94%29.80 "Hg3 mi
2:00 PM73 °FRain showers. Fog.15 mph89%29.80 "Hg2 mi
1:30 PM73 °FRain showers. Fog.15 mph89%29.83 "Hg2 mi
1:00 PM73 °FRain showers. Fog.14 mph89%29.83 "Hg2 mi
12:30 PM73 °FSprinkles. Fog.13 mph89%29.83 "Hg3 mi
12:00 PM73 °FRain showers. Fog.12 mph89%29.83 "Hg2 mi
11:30 AM73 °FRain showers. Fog.12 mph89%29.86 "Hg2 mi
11:00 AM73 °FSprinkles. Broken clouds.10 mph89%29.86 "Hg4 mi
10:30 AM73 °FSprinkles. Partly sunny.9 mph89%29.86 "Hg5 mi
10:00 AM75 °FSprinkles. Partly sunny.10 mph83%29.86 "Hg4 mi
9:30 AM75 °FSprinkles. Partly sunny.10 mph83%29.86 "Hg5 mi
9:00 AM75 °FSprinkles. Broken clouds.7 mph83%29.89 "Hg5 mi
8:30 AM75 °FSprinkles. Partly sunny.7 mph83%29.89 "Hg5 mi
8:00 AM75 °FScattered showers. Broken clouds.7 mph83%29.89 "HgN/A
7:30 AM75 °FSprinkles. Partly sunny.8 mph83%29.89 "HgN/A
7:00 AM75 °FBroken clouds.9 mph83%29.89 "HgN/A
6:30 AM75 °FBroken clouds.8 mph78%29.89 "HgN/A
6:00 AM75 °FBroken clouds.9 mph83%29.89 "HgN/A
5:30 AM75 °FBroken clouds.9 mph78%29.86 "HgN/A
5:00 AM75 °FPartly sunny.8 mph78%29.89 "HgN/A
4:30 AM75 °FPartly cloudy.10 mph83%29.86 "HgN/A
4:00 AM75 °FPartly cloudy.9 mph83%29.86 "HgN/A
3:30 AM75 °FPartly cloudy.9 mph83%29.86 "HgN/A
3:00 AM75 °FPartly cloudy.10 mph83%29.86 "HgN/A
Weather by CustomWeather, © 2016

See weather overviewHow to use our weather pages